Prague, Czech Republic

5:01 PM CEST on May 27, 2017 (GMT +0200)
Ruzyne

Weather History for LKPR - May, 2013

Change the Weather History Date:

Wednesday, May 29, 2013

  Actual Average Record
Temperature  
Mean Temperature 54 °F -  
Max Temperature 65 °F 71 °F 86 °F (2005)
Min Temperature 44 °F 51 °F 37 °F (2004)
Degree Days  
Heating Degree Days 10    
Growing Degree Days 4 (Base 50)    
Moisture  
Dew Point 51 °F    
Average Humidity 89    
Maximum Humidity 100    
Minimum Humidity 64    
Precipitation  
Precipitation 0.12 in 0.10 in - ()
Sea Level Pressure  
Sea Level Pressure 29.55 in    
Wind  
Wind Speed 5 mph ()    
Max Wind Speed 15 mph    
Max Gust Speed -    
Visibility 4.7 miles    
Events Fog , Rain , Thunderstorm    
Averages and records for this station are not official NWS values.
T = Trace of Precipitation, MM = Missing Value Source: Averaged Metar Reports

Daily Weather History Graph

Daily Weather History Graph

Search for Another Location

Airport or City:

Trip Planner

Search our weather history database for the weather conditions in past years. The results will help you decide how hot, cold, wet, or windy it might be!

Date:

Astronomy

May. 29, 2013 Rise Set
Actual Time 5:00 AM CEST 9:00 PM CEST
Civil Twilight 4:18 AM CEST 9:43 PM CEST
Nautical Twilight 3:18 AM CEST 10:43 PM CEST
Astronomical Twilight 1:29 AM CEST 12:39 AM CEST
Moon No Moon Rise 9:54 AM CEST (5/29)
Length of Visible Light 17h 24m
Length of Day
15h 59m
Waning Gibbous, 76% of the Moon is Illuminated
May 29
Waning Gibbous
May 31
Last Quarter
Jun 8
New
Jun 16
First Quarter
Jun 23
Full

Hourly Weather History & Observations

Time (CEST) Temp. Windchill Dew Point Humidity Pressure Visibility Wind Dir Wind Speed Gust Speed Precip Events Conditions
12:00 AM 50.0 °F - 48.2 °F 94% 29.53 in - SE 6.9 mph - N/A   Clear
12:30 AM 48.2 °F - 46.4 °F 93% 29.53 in 5.0 mi SSE 8.1 mph - N/A Fog Fog
1:00 AM 48.2 °F - 46.4 °F 93% 29.53 in 5.0 mi SE 3.5 mph - N/A   Unknown
1:30 AM 46.4 °F - 44.6 °F 93% 29.53 in 5.0 mi Variable 1.2 mph - N/A   Unknown
2:00 AM 48 °F - 47 °F 96% 29.56 in 5 mi South 6.7 mph - -   Mist
2:00 AM 48.2 °F - 46.4 °F 93% 29.53 in 5.0 mi South 9.2 mph - N/A   Unknown
2:30 AM 46.4 °F 44.3 °F 46.4 °F 100% 29.53 in 4.3 mi SSW 4.6 mph - N/A   Unknown
3:00 AM 48.2 °F - 46.4 °F 93% 29.53 in 5.6 mi SSW 4.6 mph - N/A   Unknown
3:30 AM 48.2 °F - 48.2 °F 100% 29.53 in 3.7 mi NW 5.8 mph - N/A   Partly Cloudy
4:00 AM 48.2 °F - 46.4 °F 93% 29.53 in 0.4 mi North 5.8 mph - N/A   Unknown
4:10 AM 48.2 °F - 46.4 °F 93% 29.53 in 0.2 mi NNW 3.5 mph - N/A Fog Fog
4:30 AM 46.4 °F 43.5 °F 46.4 °F 100% 29.53 in 0.2 mi North 5.8 mph - N/A Fog Fog
4:40 AM 48.2 °F - 46.4 °F 93% 29.53 in 0.2 mi North 5.8 mph - N/A Fog Fog
5:00 AM 48.2 °F - 46.4 °F 93% 29.53 in 0.2 mi NNE 3.5 mph - N/A Fog Fog
5:30 AM 46.4 °F - 46.4 °F 100% 29.53 in 0.1 mi Variable 1.2 mph - N/A Fog Fog
6:00 AM 46.4 °F - 46.4 °F 100% 29.53 in 0.1 mi Variable 2.3 mph - N/A Fog Fog
6:30 AM 46.4 °F 45.2 °F 46.4 °F 100% 29.53 in 0.1 mi SE 3.5 mph - N/A Fog Fog
7:00 AM 48.2 °F - 46.4 °F 93% 29.53 in 0.1 mi SSE 4.6 mph - N/A Fog Fog
7:30 AM 48.2 °F - 48.2 °F 100% 29.53 in 0.1 mi Variable 1.2 mph - N/A Fog Fog
7:44 AM 48.2 °F - 48.2 °F 100% 29.53 in 0.2 mi Variable 2.3 mph - N/A Fog Patches of Fog
7:47 AM 48.2 °F - 48.2 °F 100% 29.53 in 0.6 mi SE 3.5 mph - N/A Fog Patches of Fog
7:53 AM 50.0 °F - 48.2 °F 94% 29.53 in 1.4 mi SE 3.5 mph - N/A Fog Patches of Fog
8:00 AM 51 °F - 50 °F 97% 29.54 in 1 mi SE 4.5 mph - - Fog Partial Fog
8:00 AM 50.0 °F - 50.0 °F 100% 29.53 in 2.5 mi ESE 3.5 mph - N/A Fog Patches of Fog
8:05 AM 51.8 °F - 51.8 °F 100% 29.53 in 3.7 mi East 4.6 mph - N/A   Scattered Clouds
8:12 AM 51.8 °F - 51.8 °F 100% 29.53 in 4.3 mi ENE 4.6 mph - N/A   Partly Cloudy
8:30 AM 53.6 °F - 51.8 °F 94% 29.53 in 5.0 mi ESE 3.5 mph - N/A   Partly Cloudy
9:00 AM 55.4 °F - 51.8 °F 88% 29.53 in 5.6 mi ENE 4.6 mph - N/A   Partly Cloudy
9:30 AM 59.0 °F - 51.8 °F 77% 29.53 in 6.2 mi NE 4.6 mph - N/A   Partly Cloudy
10:00 AM 60.8 °F - 51.8 °F 72% 29.53 in 6.2 mi East 4.6 mph - N/A   Partly Cloudy
10:30 AM 60.8 °F - 50.0 °F 68% 29.53 in 6.2 mi SE 5.8 mph - N/A   Scattered Clouds
11:00 AM 60.8 °F - 50.0 °F 68% 29.53 in 6.2 mi Variable 3.5 mph - N/A   Scattered Clouds
11:30 AM 62.6 °F - 51.8 °F 68% 29.53 in 6.2 mi SSW 3.5 mph - N/A   Mostly Cloudy
12:00 PM 64.4 °F - 51.8 °F 64% 29.53 in 6.2 mi Variable 2.3 mph - N/A   Scattered Clouds
12:30 PM 62.6 °F - 51.8 °F 68% 29.53 in 6.2 mi NNE 4.6 mph - N/A   Scattered Clouds
1:00 PM 64.4 °F - 51.8 °F 64% 29.53 in 6.2 mi Variable 3.5 mph - N/A Thunderstorm Mostly Cloudy
1:14 PM 60.8 °F - 53.6 °F 77% 29.53 in 6.2 mi East 13.8 mph - N/A Thunderstorm Mostly Cloudy
1:30 PM 59.0 °F - 50.0 °F 72% 29.53 in 6.2 mi East 15.0 mph - N/A Rain , Thunderstorm Light Rain Showers
1:48 PM 55.4 °F - 53.6 °F 94% 29.53 in 5.6 mi East 15.0 mph - N/A Rain , Thunderstorm Light Thunderstorms and Rain
2:00 PM 57 °F - 53 °F 84%  in 6 mi ENE 11.2 mph - - Rain , Thunderstorm Thunderstorms and Rain
2:00 PM 57.2 °F - 53.6 °F 88% 29.53 in 6.2 mi ENE 13.8 mph - N/A Rain , Thunderstorm Light Thunderstorms and Rain
2:07 PM 57.2 °F - 53.6 °F 88% 29.53 in 6.2 mi NE 8.1 mph - N/A Rain , Thunderstorm Light Rain Showers
2:30 PM 57.2 °F - 55.4 °F 94% 29.53 in 6.2 mi ENE 6.9 mph - N/A Rain , Thunderstorm Light Thunderstorms and Rain
2:44 PM 59.0 °F - 55.4 °F 88% 29.53 in 6.2 mi East 8.1 mph - N/A Thunderstorm Scattered Clouds
3:00 PM 59.0 °F - 55.4 °F 88% 29.53 in 6.2 mi East 5.8 mph - N/A Thunderstorm Partly Cloudy
3:12 PM 60.8 °F - 55.4 °F 82% 29.53 in 6.2 mi East 4.6 mph - N/A Rain Light Rain Showers
3:30 PM 60.8 °F - 55.4 °F 82% 29.53 in 6.2 mi SE 3.5 mph - N/A Rain Light Rain Showers
4:00 PM 59.0 °F - 55.4 °F 88% 29.56 in 6.2 mi SSW 3.5 mph - N/A Rain Light Rain Showers
4:16 PM 57.2 °F - 55.4 °F 94% 29.56 in 5.0 mi SSW 8.1 mph - N/A Rain Rain
4:30 PM 57.2 °F - 55.4 °F 94% 29.56 in 5.0 mi SW 8.1 mph - N/A Rain Rain Showers
4:52 PM 55.4 °F - 55.4 °F 100% 29.53 in 5.0 mi WNW 6.9 mph - N/A Rain Light Rain Showers
5:00 PM 55.4 °F - 55.4 °F 100% 29.53 in 6.2 mi WSW 5.8 mph - N/A   Partly Cloudy
5:30 PM 57.2 °F - 55.4 °F 94% 29.56 in 6.2 mi WSW 6.9 mph - N/A   Partly Cloudy
6:00 PM 59.0 °F - 55.4 °F 88% 29.56 in 6.2 mi West 5.8 mph - N/A   Partly Cloudy
6:30 PM 59.0 °F - 53.6 °F 82% 29.56 in 6.2 mi West 8.1 mph - N/A   Partly Cloudy
7:00 PM 59.0 °F - 53.6 °F 82% 29.56 in - West 6.9 mph - N/A   Clear
7:30 PM 59.0 °F - 51.8 °F 77% 29.59 in - WNW 3.5 mph - N/A   Clear
8:00 PM 57 °F - 51 °F 76% 29.60 in 19 mi SSW 4.5 mph - -   Partly Cloudy
8:00 PM 57.2 °F - 51.8 °F 82% 29.59 in - Variable 2.3 mph - N/A   Clear
8:30 PM 55.4 °F - 51.8 °F 88% 29.59 in - SW 6.9 mph - N/A   Clear
9:00 PM 55.4 °F - 51.8 °F 88% 29.62 in 6.2 mi WSW 12.7 mph - N/A   Partly Cloudy
9:30 PM 53.6 °F - 50.0 °F 88% 29.62 in 6.2 mi WSW 13.8 mph - N/A   Partly Cloudy
10:00 PM 51.8 °F - 50.0 °F 94% 29.65 in 6.2 mi WSW 12.7 mph - N/A   Partly Cloudy
10:30 PM 51.8 °F - 48.2 °F 88% 29.62 in 6.2 mi West 11.5 mph - N/A   Scattered Clouds
11:00 PM 51.8 °F - 50.0 °F 94% 29.65 in 6.2 mi WSW 8.1 mph - N/A   Scattered Clouds
11:30 PM 51.8 °F - 48.2 °F 88% 29.65 in 6.2 mi WSW 9.2 mph - N/A   Scattered Clouds